�������l�o���
Date,Time,MP-1(��Sv/h),MP-2(��Sv/h),MP-3(��Sv/h),MP-4(��Sv/h),MP-5(��Sv/h),MP-6(��Sv/h),MP-7(��Sv/h),MP-8(��Sv/h),����,����(m/s),���J
2024/05/29,00:00,0.480,0.727,0.471,0.909,0.658,0.308,0.537,0.503,�k�k��,2.6,�L
2024/05/29,00:10,0.479,0.725,0.470,0.907,0.658,0.308,0.538,0.503,�k�k��,3.4,�L
2024/05/29,00:20,0.481,0.730,0.469,0.907,0.659,0.307,0.538,0.502,�k�k��,3.6,�L
2024/05/29,00:30,0.477,0.723,0.469,0.904,0.653,0.307,0.537,0.502,�k��,7.0,�L
2024/05/29,00:40,0.477,0.722,0.469,0.899,0.653,0.307,0.535,0.501,���k��,6.6,�L
2024/05/29,00:50,0.478,0.724,0.470,0.904,0.657,0.309,0.537,0.502,���k��,7.8,�L
2024/05/29,01:00,0.480,0.726,0.469,0.904,0.656,0.307,0.537,0.503,�k��,6.2,��
2024/05/29,01:10,0.480,0.727,0.470,0.905,0.657,0.307,0.538,0.503,�k��,7.2,��
2024/05/29,01:20,0.481,0.727,0.469,0.905,0.658,0.306,0.539,0.503,�k��,5.8,��
2024/05/29,01:30,0.481,0.726,0.469,0.906,0.659,0.308,0.538,0.504,�k�k��,5.2,��
2024/05/29,01:40,0.482,0.727,0.468,0.904,0.659,0.308,0.538,0.504,�k�k��,4.2,�L
2024/05/29,01:50,0.482,0.729,0.469,0.905,0.659,0.307,0.536,0.505,�k,3.7,�L
2024/05/29,02:00,0.481,0.729,0.470,0.906,0.659,0.308,0.536,0.506,�k,4.7,�L
2024/05/29,02:10,0.483,0.730,0.471,0.906,0.660,0.307,0.538,0.504,�k�k��,6.8,�L
2024/05/29,02:20,0.477,0.722,0.467,0.900,0.651,0.308,0.534,0.501,�k,6.7,�L
2024/05/29,02:30,0.472,0.716,0.468,0.892,0.648,0.307,0.532,0.500,�k�k��,5.8,�L
2024/05/29,02:40,0.477,0.718,0.469,0.893,0.647,0.307,0.533,0.499,�k,2.5,�L
2024/05/29,02:50,0.476,0.716,0.467,0.889,0.643,0.309,0.532,0.499,�k��,5.6,�L
2024/05/29,03:00,0.480,0.725,0.471,0.894,0.647,0.309,0.534,0.500,�k,5.3,�L
2024/05/29,03:10,0.481,0.723,0.472,0.893,0.648,0.310,0.533,0.502,�k,6.9,�L
2024/05/29,03:20,0.487,0.725,0.476,0.896,0.650,0.313,0.532,0.501,�k,6.2,�L
2024/05/29,03:30,0.486,0.727,0.478,0.898,0.652,0.314,0.532,0.502,�k,6.8,�L
2024/05/29,03:40,0.489,0.727,0.478,0.903,0.653,0.315,0.535,0.502,�k,4.2,�L
2024/05/29,03:50,0.488,0.725,0.477,0.900,0.650,0.315,0.534,0.501,���k��,2.0,�L
2024/05/29,04:00,0.487,0.725,0.476,0.896,0.649,0.315,0.534,0.503,���k��,4.4,�L
2024/05/29,04:10,0.485,0.725,0.477,0.896,0.649,0.315,0.532,0.500,�k�k��,1.4,�L
2024/05/29,04:20,0.486,0.725,0.478,0.893,0.644,0.316,0.529,0.500,���쓌,5.3,�L
2024/05/29,04:30,0.490,0.727,0.480,0.896,0.648,0.316,0.531,0.500,�k,3.5,�L
2024/05/29,04:40,0.488,0.730,0.479,0.899,0.649,0.316,0.533,0.502,�k�k��,3.8,�L
2024/05/29,04:50,0.487,0.727,0.477,0.897,0.649,0.316,0.532,0.500,�k�k��,1.9,�L
2024/05/29,05:00,0.488,0.727,0.476,0.898,0.648,0.314,0.532,0.501,�k�k��,4.0,�L
2024/05/29,05:10,0.486,0.727,0.476,0.900,0.648,0.312,0.532,0.501,�k,4.1,�L
2024/05/29,05:20,0.485,0.726,0.472,0.897,0.649,0.313,0.534,0.502,�k,3.4,��
2024/05/29,05:30,0.483,0.726,0.471,0.897,0.647,0.311,0.531,0.501,�k,3.2,��
2024/05/29,05:40,0.482,0.727,0.469,0.897,0.648,0.311,0.532,0.501,�k,3.9,��
2024/05/29,05:50,0.483,0.727,0.470,0.897,0.646,0.309,0.532,0.501,�k,5.0,��
2024/05/29,06:00,0.481,0.726,0.468,0.900,0.647,0.309,0.531,0.502,�k,4.4,��
2024/05/29,06:10,0.480,0.727,0.466,0.896,0.646,0.307,0.531,0.501,�k�k��,3.4,��
2024/05/29,06:20,0.481,0.727,0.468,0.899,0.647,0.307,0.532,0.502,�k�k��,2.6,��
2024/05/29,06:30,0.480,0.726,0.465,0.898,0.644,0.306,0.532,0.501,�k�k��,2.3,��
2024/05/29,06:40,0.479,0.728,0.467,0.897,0.644,0.305,0.533,0.502,�k,3.1,��
2024/05/29,06:50,0.478,0.727,0.467,0.897,0.645,0.305,0.533,0.499,�k�k��,2.0,��
2024/05/29,07:00,0.477,0.727,0.464,0.897,0.645,0.304,0.531,0.500,�k,2.3,��
2024/05/29,07:10,0.479,0.725,0.466,0.898,0.648,0.304,0.534,0.501,�k,2.5,��
2024/05/29,07:20,0.478,0.725,0.467,0.899,0.646,0.305,0.534,0.501,�k,3.4,��
2024/05/29,07:30,0.477,0.724,0.465,0.899,0.646,0.305,0.532,0.500,�k,2.3,��
2024/05/29,07:40,0.478,0.724,0.466,0.898,0.646,0.304,0.535,0.500,�k,3.7,��
2024/05/29,07:50,0.478,0.726,0.466,0.899,0.647,0.303,0.534,0.502,�k�k��,3.4,��
2024/05/29,08:00,0.479,0.725,0.466,0.898,0.651,0.304,0.533,0.501,�k�k��,3.8,��
2024/05/29,08:10,0.478,0.726,0.466,0.899,0.650,0.305,0.533,0.500,�k�k��,4.7,��
2024/05/29,08:20,0.478,0.724,0.466,0.896,0.649,0.305,0.535,0.502,�k�k��,4.6,��
2024/05/29,08:30,0.477,0.727,0.465,0.899,0.648,0.305,0.533,0.502,�k�k��,3.8,��
2024/05/29,08:40,0.478,0.727,0.464,0.900,0.648,0.303,0.534,0.500,�k�k��,3.6,��
2024/05/29,08:50,0.479,0.727,0.464,0.900,0.650,0.306,0.535,0.502,�k�k��,3.1,��
2024/05/29,09:00,0.477,0.727,0.463,0.903,0.648,0.304,0.534,0.501,�k��,2.0,��
2024/05/29,09:10,0.479,0.728,0.465,0.900,0.647,0.305,0.535,0.501,�k�k��,2.8,��
2024/05/29,09:20,0.479,0.729,0.464,0.901,0.650,0.305,0.535,0.499,�k��,2.0,��
2024/05/29,09:30,0.479,0.730,0.466,0.901,0.651,0.305,0.535,0.498,���k��,2.8,��
2024/05/29,09:40,0.481,0.730,0.465,0.901,0.650,0.305,0.536,0.498,��,2.8,��
2024/05/29,09:50,0.479,0.730,0.465,0.899,0.650,0.304,0.536,0.499,���k��,2.3,��
2024/05/29,10:00,0.480,0.728,0.465,0.900,0.651,0.305,0.536,0.499,���k��,0.9,��
2024/05/29,10:10,0.481,0.732,0.467,0.902,0.652,0.305,0.535,0.499,��쓌,1.4,��
2024/05/29,10:20,0.480,0.731,0.466,0.902,0.652,0.307,0.536,0.499,�쓌,1.4,��
2024/05/29,10:30,0.481,0.732,0.467,0.902,0.652,0.306,0.536,0.498,���쓌,1.7,��
2024/05/29,10:40,0.481,0.732,0.467,0.904,0.652,0.305,0.536,0.501,��,2.5,��
2024/05/29,10:50,0.482,0.735,0.466,0.900,0.652,0.306,0.537,0.499,��,1.2,��
2024/05/29,11:00,0.481,0.732,0.469,0.903,0.653,0.305,0.538,0.500,��,2.8,��
2024/05/29,11:10,0.483,0.728,0.468,0.901,0.653,0.305,0.537,0.499,���k��,1.9,��
2024/05/29,11:20,0.484,0.730,0.470,0.902,0.652,0.305,0.537,0.498,���k��,2.2,��
2024/05/29,11:30,0.482,0.726,0.467,0.902,0.655,0.307,0.536,0.498,��,1.5,��
2024/05/29,11:40,0.482,0.734,0.468,0.902,0.654,0.306,0.537,0.499,��,2.0,�L
2024/05/29,11:50,0.483,0.735,0.470,0.903,0.656,0.305,0.538,0.501,��,2.0,��
2024/05/29,12:00,0.482,0.737,0.468,0.899,0.655,0.306,0.538,0.500,��,2.3,��
2024/05/29,12:10,0.483,0.737,0.470,0.901,0.656,0.306,0.536,0.501,��,2.5,��
2024/05/29,12:20,0.483,0.737,0.469,0.903,0.657,0.306,0.537,0.500,�쓌,2.6,��
2024/05/29,12:30,0.484,0.738,0.470,0.903,0.657,0.307,0.539,0.500,�쓌,2.5,��
2024/05/29,12:40,0.482,0.738,0.470,0.903,0.656,0.307,0.537,0.501,�쓌,2.2,��
2024/05/29,12:50,0.482,0.739,0.469,0.902,0.658,0.307,0.538,0.500,���쓌,3.0,��
2024/05/29,13:00,0.484,0.738,0.471,0.905,0.656,0.308,0.537,0.501,���쓌,3.2,��
2024/05/29,13:10,0.484,0.738,0.470,0.904,0.659,0.306,0.538,0.501,���쓌,2.8,��
2024/05/29,13:20,0.484,0.738,0.470,0.903,0.660,0.307,0.538,0.500,�쓌,3.6,��
2024/05/29,13:30,0.484,0.739,0.469,0.903,0.658,0.307,0.538,0.502,��쓌,3.3,��
2024/05/29,13:40,0.486,0.740,0.469,0.904,0.660,0.307,0.540,0.502,�쓌,2.8,��
2024/05/29,13:50,0.485,0.738,0.472,0.905,0.659,0.307,0.540,0.503,�쓌,4.5,��
2024/05/29,14:00,0.485,0.741,0.470,0.902,0.660,0.307,0.539,0.503,��쓌,4.0,��
2024/05/29,14:10,0.486,0.738,0.472,0.903,0.661,0.307,0.540,0.499,��쓌,3.0,��
2024/05/29,14:20,0.484,0.741,0.472,0.902,0.659,0.306,0.540,0.502,��쓌,1.5,��
2024/05/29,14:30,0.486,0.740,0.473,0.906,0.660,0.307,0.541,0.501,�쓌,1.9,��
2024/05/29,14:40,0.485,0.742,0.471,0.904,0.660,0.307,0.540,0.502,��쓌,2.0,��
2024/05/29,14:50,0.485,0.740,0.472,0.906,0.662,0.307,0.540,0.501,�쓌,2.3,��
2024/05/29,15:00,0.486,0.741,0.471,0.903,0.659,0.307,0.538,0.501,�쓌,3.7,��
2024/05/29,15:10,0.486,0.740,0.469,0.905,0.661,0.308,0.539,0.501,��쓌,3.5,��
2024/05/29,15:20,0.485,0.742,0.472,0.905,0.662,0.307,0.541,0.501,��쓌,3.2,��
2024/05/29,15:30,0.484,0.741,0.471,0.906,0.662,0.307,0.540,0.500,�쓌,3.5,��
2024/05/29,15:40,0.486,0.742,0.471,0.907,0.662,0.307,0.540,0.502,��쓌,3.4,��
2024/05/29,15:50,0.486,0.740,0.470,0.907,0.661,0.307,0.540,0.501,��쓌,2.8,��
2024/05/29,16:00,0.485,0.739,0.471,0.907,0.661,0.306,0.541,0.501,��쓌,3.1,��
2024/05/29,16:10,0.486,0.741,0.470,0.908,0.660,0.307,0.541,0.502,��,2.5,�L
2024/05/29,16:20,0.484,0.743,0.471,0.907,0.661,0.306,0.540,0.501,��,4.0,��
2024/05/29,16:30,0.485,0.742,0.472,0.904,0.662,0.308,0.540,0.500,��,4.3,��
2024/05/29,16:40,0.486,0.742,0.472,0.906,0.660,0.308,0.541,0.502,��,4.0,��
2024/05/29,16:50,0.486,0.743,0.471,0.909,0.661,0.308,0.540,0.500,��,5.8,��
2024/05/29,17:00,0.485,0.742,0.472,0.908,0.660,0.308,0.540,0.501,��,5.4,��
2024/05/29,17:10,0.487,0.742,0.472,0.909,0.662,0.307,0.541,0.502,��,4.7,��
2024/05/29,17:20,0.485,0.743,0.470,0.907,0.663,0.307,0.541,0.502,��,6.6,��
2024/05/29,17:30,0.485,0.744,0.472,0.908,0.662,0.307,0.541,0.502,��,5.1,��
2024/05/29,17:40,0.485,0.742,0.472,0.911,0.662,0.308,0.539,0.502,��,6.9,��
2024/05/29,17:50,0.485,0.744,0.473,0.910,0.663,0.307,0.540,0.502,���k��,5.7,��
2024/05/29,18:00,0.484,0.744,0.474,0.912,0.662,0.308,0.541,0.502,���k��,4.8,��
2024/05/29,18:10,0.486,0.746,0.473,0.913,0.664,0.308,0.538,0.502,��,4.8,��
2024/05/29,18:20,0.485,0.745,0.472,0.911,0.665,0.308,0.538,0.503,��,4.1,��
2024/05/29,18:30,0.487,0.746,0.471,0.910,0.665,0.306,0.538,0.504,���k��,4.9,��
2024/05/29,18:40,0.486,0.745,0.472,0.911,0.665,0.307,0.537,0.504,���k��,3.5,��
2024/05/29,18:50,0.487,0.747,0.471,0.914,0.666,0.308,0.540,0.504,��,2.6,��
2024/05/29,19:00,0.487,0.744,0.471,0.916,0.665,0.308,0.537,0.505,���쐼,2.2,��
2024/05/29,19:10,0.489,0.746,0.471,0.916,0.665,0.311,0.537,0.505,���쐼,2.5,��
2024/05/29,19:20,0.486,0.746,0.472,0.915,0.665,0.308,0.539,0.503,��,2.6,��
2024/05/29,19:30,0.486,0.747,0.474,0.913,0.665,0.308,0.537,0.505,��,3.6,��
2024/05/29,19:40,0.488,0.746,0.473,0.914,0.666,0.309,0.539,0.506,���k��,3.6,��
2024/05/29,19:50,0.486,0.746,0.473,0.912,0.665,0.308,0.538,0.503,���k��,3.6,��
2024/05/29,20:00,0.488,0.745,0.474,0.914,0.665,0.308,0.539,0.504,�k��,3.5,��
2024/05/29,20:10,0.488,0.746,0.474,0.915,0.665,0.308,0.539,0.504,���k��,2.6,��
2024/05/29,20:20,0.490,0.745,0.475,0.915,0.665,0.310,0.540,0.504,���k��,3.4,��
2024/05/29,20:30,0.485,0.744,0.473,0.915,0.664,0.310,0.541,0.505,��,2.8,��
2024/05/29,20:40,0.488,0.746,0.474,0.915,0.666,0.309,0.539,0.505,��,1.7,��
2024/05/29,20:50,0.486,0.746,0.473,0.912,0.665,0.308,0.540,0.503,���쐼,0.9,��
2024/05/29,21:00,0.488,0.745,0.474,0.914,0.664,0.308,0.539,0.504,�k�k��,2.0,��
2024/05/29,21:10,0.487,0.747,0.473,0.914,0.665,0.309,0.539,0.504,�k�k��,3.0,��
2024/05/29,21:20,0.486,0.746,0.473,0.914,0.666,0.308,0.540,0.504,�k�k��,2.6,��
2024/05/29,21:30,0.486,0.746,0.474,0.914,0.664,0.309,0.539,0.504,�k��,2.6,��
2024/05/29,21:40,0.487,0.745,0.474,0.916,0.666,0.310,0.541,0.502,�k��,2.5,��
2024/05/29,21:50,0.488,0.748,0.472,0.913,0.666,0.309,0.541,0.503,���k��,3.1,��
2024/05/29,22:00,0.487,0.745,0.473,0.913,0.666,0.308,0.540,0.504,���k��,2.9,��
2024/05/29,22:10,0.488,0.747,0.473,0.916,0.667,0.308,0.540,0.504,�k��,1.7,��
2024/05/29,22:20,0.487,0.743,0.474,0.915,0.667,0.308,0.539,0.504,�k��,1.2,��
2024/05/29,22:30,0.489,0.747,0.473,0.915,0.667,0.309,0.540,0.504,�k��,1.7,��
2024/05/29,22:40,0.488,0.745,0.474,0.915,0.665,0.308,0.540,0.503,�k��,2.2,��
2024/05/29,22:50,0.488,0.747,0.472,0.914,0.665,0.310,0.541,0.504,�k��,1.9,��
2024/05/29,23:00,0.488,0.745,0.472,0.915,0.664,0.307,0.543,0.504,��쓌,0.6,��
2024/05/29,23:10,0.488,0.748,0.473,0.915,0.665,0.309,0.541,0.503,��쐼,1.2,��
2024/05/29,23:20,0.488,0.745,0.472,0.915,0.664,0.308,0.541,0.504,��쓌,0.9,��
2024/05/29,23:30,0.487,0.744,0.472,0.916,0.666,0.309,0.542,0.503,�쓌,1.1,��
2024/05/29,23:40,0.486,0.744,0.472,0.915,0.666,0.309,0.541,0.504,�쓌,2.2,��
2024/05/29,23:50,0.487,0.744,0.473,0.914,0.666,0.308,0.543,0.504,�쓌,1.7,��
